Regional Weather Roundup
Issued by NWS

Home | Current Version | Previous Version | Text Only | Print | Product List | Glossary On
Versions: 1 2 3 4 5 6 7 8 9 10 11 12 13 14 15 16 17 18 19 20 21 22 23 24 25 26 27 28 29 30 31 32 33 34 35 36 37 38 39 40 41 42 43 44 45 46 47 48 49 50
000
ASUS43 KOAX 292310
RWRNE

WEATHER ROUNDUP FOR NEBRASKA
NATIONAL WEATHER SERVICE OMAHA NE
600 PM CDT MON JUN 29 2015

NOTES: SATELLITE DATA IS BEING USED TO AUGMENT CLOUD COVER ABOVE
       12000 FEET.
       "FAIR" INDICATES FEW OR NO CLOUDS BELOW 12,000 FEET WITH NO
       SIGNIFICANT WEATHER AND/OR OBSTRUCTIONS TO VISIBILITY.

  * THESE STATIONS DO NOT REPORT WEATHER SUCH AS RAIN...SNOW OR FOG.

NEZ001>004-019>022-054>056-300000-
NEBRASKA PANHANDLE

CITY           SKY/WX    TMP DP  RH WIND       PRES   REMARKS
SCOTTSBLUFF    MOSUNNY   92  53  26 VRB5      30.08F
ALLIANCE       SUNNY     88  54  31 NE9       30.09F
CHADRON        MOSUNNY   82  66  58 N3        30.06S
KIMBALL          N/A    N/A N/A N/A MISG        N/A
SIDNEY         SUNNY     88  53  30 N7        30.13F
$$

NEZ057>060-069>072-079>082-300000-
SOUTHWEST NEBRASKA

CITY           SKY/WX    TMP DP  RH WIND       PRES   REMARKS
NORTH PLATTE   MOSUNNY   89  54  30 CALM      30.01F
IMPERIAL       SUNNY     89  53  29 CALM      30.06F
LEXINGTON      SUNNY     93  54  26 NE7       29.99F HX  90
MCCOOK         SUNNY     93  56  28 N7        30.00F HX  91
OGALLALA       SUNNY     89  53  29 N6        30.06S
$$

NEZ005>010-023>029-035>040-094-300000-
NORTH CENTRAL NEBRASKA

CITY           SKY/WX    TMP DP  RH WIND       PRES   REMARKS
VALENTINE      SUNNY     89  60  37 N3        30.01F
AINSWORTH      SUNNY     88  56  33 N7        30.02S
BROKEN BOW     SUNNY     89  61  38 N6        30.00F
O`NEILL        SUNNY     86  58  38 NE7       29.97F
ORD            SUNNY     90  54  29 N12       29.96S
THEDFORD       SUNNY     90  58  33 N7        30.03S
$$

NEZ041-046>049-061>064-073>077-083>087-300000-
SOUTH CENTRAL NEBRASKA

CITY           SKY/WX    TMP DP  RH WIND       PRES   REMARKS
GRAND ISLAND   SUNNY     90  56  31 NW7       29.96F
AURORA         SUNNY     87  56  35 CALM      29.96F
HASTINGS       SUNNY     88  60  38 VRB6      29.97F
HEBRON         SUNNY     86  56  35 CALM      29.95F
HOLDREGE       SUNNY     89  54  30 N5        29.99F
KEARNEY *      SUNNY     88  59  37 N9        29.98F
YORK           SUNNY     86  59  39 N7        29.95F
$$

NEZ011>018-030>034-042>045-300000-
NORTHEAST NEBRASKA

CITY           SKY/WX    TMP DP  RH WIND       PRES   REMARKS
NORFOLK        SUNNY     85  60  42 N8        29.94S
ALBION         SUNNY     85  57  38 NE7       29.96S
BLAIR          MOSUNNY   82  60  47 N5        29.92S
COLUMBUS *     SUNNY    N/A N/A N/A MISG        N/A
FREMONT        SUNNY     85  56  37 N7        29.92F
TEKAMAH        SUNNY     85  62  46 N10       29.90F
WAYNE          SUNNY     80  65  59 N5        29.95R
$$

NEZ050>053-065>068-078-088>093-300000-
SOUTHEAST NEBRASKA

CITY           SKY/WX    TMP DP  RH WIND       PRES   REMARKS
LINCOLN        SUNNY     88  58  36 NW7       29.93F HAZE
OMAHA EPPLEY   CLOUDY    85  61  44 NW8       29.90S
BEATRICE       SUNNY     85  59  41 NW8       29.94F
FALLS CITY     SUNNY     84  64  50 N7        29.90F
NEBRASKA CITY  SUNNY     84  51  31 N7        29.92S
PLATTSMOUTH    PTSUNNY   84  59  42 NW5       29.91F
$$

NEZ044-045-051>053-067-300000-
OMAHA AREA

CITY           SKY/WX    TMP DP  RH WIND       PRES   REMARKS
OMAHA EPPLEY   CLOUDY    85  61  44 NW8       29.90S
BLAIR          MOSUNNY   82  60  47 N5        29.92S
FREMONT        SUNNY     85  56  37 N7        29.92F
MILLARD        SUNNY     85  62  45 NW8       29.91S
OFFUTT AFB     SUNNY     83  63  50 N5        29.90S
PLATTSMOUTH    PTSUNNY   84  59  42 NW5       29.91F
WAHOO          FAIR      86  58  37 NW8       29.92F
$$


USA.gov is the U.S. government's official web portal to all federal, state and local government web resources and services.